GW4420 Weather Reports


time (UTC)temp
C
wind
direction
speed
KPH
gust
KPH
rain 1hr
cm
rain 24hr
cm
rain mn
cm
humidity
%
barometer
mb
20260502190138 22 101 9.7 12.9 0.00 0.00 0.00 87 1014.8
20260502185632 22 102 1.6 6.4 0.00 0.00 0.00 87 1015.1
20260502185130 22 81 3.2 4.8 0.00 0.00 0.00 87 1014.9
20260502184626 22 40 3.2 11.3 0.00 0.00 0.00 87 1015.0
20260502184121 22 54 4.8 6.4 0.00 0.00 0.00 87 1015.1
20260502183618 22 96 6.4 9.7 0.00 0.00 0.00 87 1015.0
20260502183115 22 75 3.2 6.4 0.00 0.00 0.00 87 1015.1
20260502182609 22 85 6.4 12.9 0.00 0.00 0.00 87 1015.1
20260502182105 22 90 0.0 6.4 0.00 0.00 0.00 87 1015.3
20260502181602 22 59 3.2 4.8 0.00 0.00 0.00 87 1015.3
20260502181056 22 73 0.0 12.9 0.00 0.00 0.00 87 1015.3
20260502180553 22 82 3.2 12.9 0.00 0.00 0.00 87 1015.3
20260502170506 22 100 3.2 6.4 0.00 0.00 0.00 86 1016.2
20260502163949 22 65 0.0 3.2 0.00 0.00 0.00 85 1016.6
20260502163445 22 89 4.8 9.7 0.00 0.00 0.00 85 1016.5
20260502162943 22 92 4.8 6.4 0.00 0.00 0.00 84 1016.6
20260502162439 22 86 3.2 11.3 0.00 0.00 0.00 84 1016.8
20260502161937 22 88 4.8 11.3 0.00 0.00 0.00 84 1016.7
20260502161433 22 72 1.6 6.4 0.00 0.00 0.00 84 1016.9
20260502160931 22 95 4.8 6.4 0.00 0.00 0.00 84 1016.9
20260502160429 22 84 4.8 6.4 0.00 0.00 0.00 84 1016.8
20260502151907 22 63 3.2 11.3 0.00 0.00 0.00 83 1017.1
20260502151403 22 89 1.6 11.3 0.00 0.00 0.00 83 1017.2
20260502150901 22 86 6.4 12.9 0.00 0.00 0.00 82 1017.3
20260502150357 22 132 8.0 11.3 0.00 0.00 0.00 82 1017.1
20260502130745 22 39 1.6 6.4 0.00 0.00 0.00 79 1017.8
20260502130243 22 78 4.8 14.5 0.00 0.00 0.00 79 1017.7
20260502123729 22 13 1.6 6.4 0.00 0.00 0.00 78 1017.7
20260502123225 22 51 3.2 9.7 0.00 0.00 0.00 78 1017.9
20260502122722 22 85 3.2 6.4 0.00 0.00 0.00 78 1017.5
20260502122218 22 86 0.0 6.4 0.00 0.00 0.00 78 1017.5
20260502121717 22 97 4.8 6.4 0.00 0.00 0.00 78 1017.5
20260502121214 22 31 6.4 6.4 0.00 0.00 0.00 78 1017.4
20260502120710 22 50 1.6 4.8 0.00 0.00 0.00 78 1017.1
20260502120208 22 85 3.2 9.7 0.00 0.00 0.00 78 1017.0
20260502115705 22 337 1.6 1.6 0.00 0.00 0.00 78 1017.1
20260502115202 22 90 1.6 4.8 0.00 0.00 0.00 78 1017.2
20260502114657 22 105 1.6 3.2 0.00 0.00 0.00 78 1017.3
20260502114155 22 103 4.8 6.4 0.00 0.00 0.00 77 1017.1
20260502113652 22 71 3.2 9.7 0.00 0.00 0.00 77 1017.0
20260502113150 22 83 0.0 4.8 0.00 0.00 0.00 77 1017.1
20260502112648 22 63 0.0 3.2 0.00 0.00 0.00 77 1017.0
20260502112145 22 87 4.8 6.4 0.00 0.00 0.00 77 1017.1
20260502111642 22 123 1.6 9.7 0.00 0.00 0.00 76 1017.2
20260502111140 22 100 0.0 6.4 0.00 0.00 0.00 76 1017.1
20260502110638 22 126 0.0 3.2 0.00 0.00 0.00 76 1017.2
20260502110134 22 89 3.2 3.2 0.00 0.00 0.00 76 1017.2
20260502105632 22 48 6.4 14.5 0.00 0.00 0.00 76 1017.2
20260502105129 22 70 0.0 6.4 0.00 0.00 0.00 76 1017.0
20260502104626 22 89 4.8 11.3 0.00 0.00 0.00 76 1016.8
20260502104124 22 101 6.4 6.4 0.00 0.00 0.00 75 1016.9
20260502103621 22 87 0.0 6.4 0.00 0.00 0.00 75 1016.8
20260502103119 22 101 3.2 11.3 0.00 0.00 0.00 75 1016.8
20260502102616 22 47 6.4 9.7 0.00 0.00 0.00 75 1017.0
20260502102112 22 142 4.8 9.7 0.00 0.00 0.00 75 1016.7
20260502101610 22 104 3.2 6.4 0.00 0.00 0.00 75 1016.7
20260502101108 22 61 3.2 6.4 0.00 0.00 0.00 74 1016.6
20260502100607 22 40 4.8 12.9 0.00 0.00 0.00 74 1016.5
20260502100105 22 28 4.8 6.4 0.00 0.00 0.00 74 1016.5
20260502091038 22 119 4.8 9.7 0.00 0.00 0.00 72 1016.5
20260502090535 22 75 3.2 6.4 0.00 0.00 0.00 72 1016.4
20260502071430 23 65 9.7 16.1 0.00 0.00 0.00 68 1016.5
20260502070928 23 28 9.7 14.5 0.00 0.00 0.00 67 1016.9
20260502070426 23 56 3.2 16.1 0.00 0.00 0.00 68 1016.6
20260502065924 23 127 6.4 14.5 0.00 0.00 0.00 68 1016.5
20260502065422 23 86 9.7 17.7 0.00 0.00 0.00 68 1016.9
20260502064920 23 33 4.8 6.4 0.00 0.00 0.00 67 1016.8
20260502064417 23 133 8.0 14.5 0.00 0.00 0.00 66 1017.1
20260502063914 24 88 11.3 20.9 0.00 0.00 0.00 66 1017.2
20260502063412 23 105 6.4 9.7 0.00 0.00 0.00 67 1017.2
20260502062910 23 46 11.3 14.5 0.00 0.00 0.00 66 1017.3
20260502062407 23 7 6.4 17.7 0.00 0.00 0.00 67 1017.3
20260502061906 23 64 4.8 16.1 0.00 0.00 0.00 66 1017.4
20260502061403 24 54 6.4 14.5 0.00 0.00 0.00 64 1017.3
20260502060859 25 135 6.4 11.3 0.00 0.00 0.00 64 1017.2
20260502060353 24 86 8.0 11.3 0.00 0.00 0.00 65 1017.6
20260502055851 23 18 6.4 9.7 0.00 0.00 0.00 64 1017.7
20260502055349 23 30 4.8 12.9 0.00 0.00 0.00 64 1017.5
20260502054849 23 138 1.6 14.5 0.00 0.00 0.00 65 1017.6
20260502054345 24 12 6.4 12.9 0.00 0.00 0.00 64 1017.8
20260502053843 23 93 3.2 14.5 0.00 0.00 0.00 64 1017.6
20260502053340 24 39 6.4 17.7 0.00 0.00 0.00 64 1017.8
20260502052837 24 31 9.7 16.1 0.00 0.00 0.00 63 1018.1
20260502052336 24 36 6.4 9.7 0.00 0.00 0.00 64 1017.9
20260502051833 24 105 3.2 12.9 0.00 0.00 0.00 64 1018.2
20260502051332 24 167 3.2 16.1 0.00 0.00 0.00 64 1018.1
20260502050827 23 42 6.4 11.3 0.00 0.00 0.00 64 1018.2
20260502050324 24 98 6.4 12.9 0.00 0.00 0.00 63 1018.1
20260502045821 24 303 3.2 12.9 0.00 0.00 0.00 63 1018.0
20260502045317 24 120 3.2 6.4 0.00 0.00 0.00 63 1018.2
20260502044814 25 97 3.2 12.9 0.00 0.00 0.00 62 1018.0
20260502044310 24 138 1.6 6.4 0.00 0.00 0.00 64 1018.2
20260502043808 24 92 4.8 11.3 0.00 0.00 0.00 63 1018.3
20260502043305 24 49 1.6 11.3 0.00 0.00 0.00 62 1017.8
20260502042805 23 38 1.6 12.9 0.00 0.00 0.00 62 1018.2
20260502042305 23 17 4.8 24.1 0.00 0.00 0.00 63 1018.4
20260502041800 23 87 6.4 9.7 0.00 0.00 0.00 63 1018.4
20260502041257 23 161 6.4 17.7 0.00 0.00 0.00 63 1018.5
20260502040754 23 57 12.9 20.9 0.00 0.00 0.00 62 1018.5
20260502040251 23 69 3.2 22.5 0.00 0.00 0.00 63 1018.6
20260502035747 23 105 1.6 12.9 0.00 0.00 0.00 61 1018.6
20260502035244 24 73 3.2 14.5 0.00 0.00 0.00 61 1018.6
20260502034741 23 22 1.6 9.7 0.00 0.00 0.00 63 1018.8
20260502034240 23 359 4.8 20.9 0.00 0.00 0.00 62 1018.7
20260502033737 23 74 3.2 17.7 0.00 0.00 0.00 61 1018.6
20260502033235 23 43 1.6 12.9 0.00 0.00 0.00 61 1018.6
20260502032731 23 33 6.4 16.1 0.00 0.00 0.00 59 1018.7
20260502032227 23 38 4.8 9.7 0.00 0.00 0.00 59 1018.8
20260502031726 23 69 4.8 14.5 0.00 0.00 0.00 59 1018.7
20260502031223 23 38 6.4 12.9 0.00 0.00 0.00 59 1018.7
20260502030721 23 65 4.8 12.9 0.00 0.00 0.00 60 1018.9
20260502030219 23 76 4.8 20.9 0.00 0.00 0.00 60 1019.0
20260502025716 23 44 6.4 11.3 0.00 0.00 0.00 61 1018.9
20260502025214 23 53 3.2 16.1 0.00 0.00 0.00 60 1019.1
20260502024712 23 45 8.0 16.1 0.00 0.00 0.00 59 1019.1
20260502024210 23 43 4.8 16.1 0.00 0.00 0.00 58 1019.2
20260502023708 23 90 1.6 6.4 0.00 0.00 0.00 58 1019.4
20260502023204 23 25 6.4 12.9 0.00 0.00 0.00 58 1019.1
20260502022702 23 32 6.4 16.1 0.00 0.00 0.00 56 1019.3
20260502022158 23 46 9.7 14.5 0.00 0.00 0.00 56 1019.3
20260502021655 23 62 12.9 16.1 0.00 0.00 0.00 57 1019.3
20260502021153 23 31 9.7 12.9 0.00 0.00 0.00 58 1019.4
20260502020650 23 40 6.4 14.5 0.00 0.00 0.00 59 1019.5
20260502020147 23 50 6.4 9.7 0.00 0.00 0.00 58 1019.5
20260502015645 23 44 4.8 9.7 0.00 0.00 0.00 60 1019.3
20260502015141 23 323 9.7 12.9 0.00 0.00 0.00 59 1019.4
20260502014638 23 26 8.0 17.7 0.00 0.00 0.00 60 1019.3
20260502014135 23 304 14.5 20.9 0.00 0.00 0.00 60 1019.3
20260502013631 22 7 4.8 11.3 0.00 0.00 0.00 61 1019.1
20260502013127 22 33 4.8 14.5 0.00 0.00 0.00 61 1019.6
20260502012624 22 13 8.0 12.9 0.00 0.00 0.00 60 1019.6
20260502012122 23 320 6.4 16.1 0.00 0.00 0.00 59 1019.6
20260502011619 23 318 4.8 9.7 0.00 0.00 0.00 58 1019.7
20260502011115 23 44 4.8 16.1 0.00 0.00 0.00 58 1019.8
20260502010613 22 44 6.4 12.9 0.00 0.00 0.00 58 1019.7
20260502010109 23 21 8.0 16.1 0.00 0.00 0.00 56 1019.7
20260502005607 23 34 1.6 12.9 0.00 0.00 0.00 57 1019.6
20260502005104 22 71 3.2 4.8 0.00 0.00 0.00 58 1020.0
20260502004559 22 57 3.2 17.7 0.00 0.00 0.00 58 1019.9
20260502004056 22 113 6.4 12.9 0.00 0.00 0.00 57 1019.7
20260502003555 22 26 6.4 11.3 0.00 0.00 0.00 58 1020.0
20260502003051 22 118 4.8 14.5 0.00 0.00 0.00 57 1019.9
20260502002547 22 57 3.2 12.9 0.00 0.00 0.00 57 1019.8
20260502002045 22 293 9.7 12.9 0.00 0.00 0.00 55 1020.0
20260502001543 22 71 3.2 14.5 0.00 0.00 0.00 56 1019.9
20260502001039 22 55 4.8 11.3 0.00 0.00 0.00 54 1019.8
20260502000538 22 109 4.8 6.4 0.00 0.00 0.00 56 1019.7
20260502000034 22 25 3.2 3.2 0.00 0.00 0.00 55 1019.9
20260501235530 22 52 3.2 9.7 0.00 0.00 0.00 56 1019.7
20260501235026 22 309 11.3 14.5 0.00 0.00 0.00 55 1019.9
20260501234522 22 43 1.6 9.7 0.00 0.00 0.00 55 1020.1
20260501234020 22 41 4.8 9.7 0.00 0.00 0.00 55 1019.9
20260501233518 22 12 3.2 6.4 0.00 0.00 0.00 55 1019.9
20260501233015 22 349 4.8 9.7 0.00 0.00 0.00 57 1019.8
20260501232511 22 61 3.2 9.7 0.00 0.00 0.00 58 1019.8
20260501232008 22 101 3.2 11.3 0.00 0.00 0.00 58 1020.0
20260501231506 22 13 6.4 9.7 0.00 0.00 0.00 58 1019.9
20260501231004 21 1 3.2 6.4 0.00 0.00 0.00 59 1019.9
20260501230503 22 48 3.2 6.4 0.00 0.00 0.00 61 1019.9
20260501230000 22 319 3.2 4.8 0.00 0.00 0.00 61 1019.7
20260501225458 22 27 3.2 6.4 0.00 0.00 0.00 59 1019.7
20260501224953 23 28 3.2 3.2 0.00 0.00 0.00 57 1019.9
20260501224451 22 93 0.0 0.0 0.00 0.00 0.00 59 1019.9
20260501223948 21 123 0.0 3.2 0.00 0.00 0.00 59 1019.9
20260501223444 22 346 4.8 4.8 0.00 0.00 0.00 59 1019.7
20260501222939 21 87 0.0 1.6 0.00 0.00 0.00 60 1019.6
20260501222437 21 80 3.2 3.2 0.00 0.00 0.00 60 1019.6
20260501221933 21 80 0.0 0.0 0.00 0.00 0.00 63 1019.5
20260501221430 20 92 0.0 3.2 0.00 0.00 0.00 64 1019.4
20260501220928 20 342 1.6 1.6 0.00 0.00 0.00 64 1019.5
20260501220426 20 276 0.0 3.2 0.00 0.00 0.00 65 1019.5
20260501215921 20 127 0.0 3.2 0.00 0.00 0.00 65 1019.3
20260501215418 20 94 0.0 0.0 0.00 0.00 0.00 67 1019.4
20260501214914 20 93 0.0 0.0 0.00 0.00 0.00 68 1019.5
20260501214409 18 90 0.0 0.0 0.00 0.00 0.00 69 1019.2
20260501213905 18 79 0.0 0.0 0.00 0.00 0.00 69 1019.3
20260501213402 17 63 1.6 3.2 0.00 0.00 0.00 70 1019.2
20260501212857 17 20 0.0 0.0 0.00 0.00 0.00 72 1019.3
20260501212355 17 334 1.6 3.2 0.00 0.00 0.00 72 1019.4
20260501211851 17 8 0.0 3.2 0.00 0.00 0.00 73 1019.1
20260501211349 16 305 1.6 4.8 0.00 0.00 0.00 76 1019.3
20260501210846 16 328 3.2 4.8 0.00 0.00 0.00 78 1019.1
20260501210343 16 82 0.0 0.0 0.00 0.00 0.00 79 1019.0
20260501205839 15 297 0.0 3.2 0.00 0.00 0.00 81 1018.9
20260501205336 14 275 1.6 1.6 0.00 0.00 0.00 84 1019.0
20260501204833 14 86 0.0 0.0 0.00 0.00 0.00 84 1019.1
20260501204329 14 87 0.0 0.0 0.00 0.00 0.00 84 1019.2
20260501203826 14 103 0.0 0.0 0.00 0.00 0.00 84 1019.0
20260501203323 14 98 0.0 0.0 0.00 0.00 0.00 83 1018.8
20260501202820 15 88 0.0 0.0 0.00 0.00 0.00 83 1018.8
20260501202317 15 99 0.0 0.0 0.00 0.00 0.00 82 1018.8
20260501201814 15 98 0.0 0.0 0.00 0.00 0.00 82 1018.7
20260501201310 15 99 0.0 0.0 0.00 0.00 0.00 81 1018.7
20260501200807 15 117 0.0 0.0 0.00 0.00 0.00 81 1018.8
20260501200304 15 133 0.0 0.0 0.00 0.00 0.00 81 1018.6
20260501195802 15 92 0.0 0.0 0.00 0.00 0.00 81 1018.6
20260501195257 15 100 0.0 0.0 0.00 0.00 0.00 81 1018.7
20260501194754 15 81 0.0 1.6 0.00 0.00 0.00 81 1018.6
20260501194250 15 93 0.0 0.0 0.00 0.00 0.00 81 1018.8
20260501193746 15 93 0.0 0.0 0.00 0.00 0.00 81 1018.5
20260501193245 15 153 0.0 0.0 0.00 0.00 0.00 82 1018.8
20260501192742 15 87 0.0 0.0 0.00 0.00 0.00 82 1019.0
20260501192238 15 82 0.0 0.0 0.00 0.00 0.00 82 1018.9
20260501191736 15 86 0.0 0.0 0.00 0.00 0.00 83 1018.8
20260501191233 15 87 0.0 0.0 0.00 0.00 0.00 83 1018.8
20260501190730 15 103 0.0 0.0 0.00 0.00 0.00 84 1018.9